Location: Be?i?
(36.9044°N, 30.1006°E)
Time: 10:41:41
(UTC+00:00)

Cosmos 1190 Rocket - Pass Details

Date: 05 August 2024
Orbit: 754 x 777 km, 74.1° (Epoch: 13 September)

Event Time Altitude Azimuth Distance (km) Brightness Sun altitude
Rises 18:45:39 0° 340° (NNW) 3,214 8.2 -18.7°
Reaches altitude 10° 18:48:01 10° 340° (NNW) 2,285 7.3 -19.0°
Maximum altitude 18:53:12 80° 254° (WSW) 771 4.0 -19.8°
Enters shadow 18:55:33 33° 172° (S) 1,247 4.7 -20.2°
